User: anonymous   Login
Location: Caltech
(34.1382°N, 118.1253°W)
Time: 15:25:32
(UTC-08:00)
Language:

Iridium 94 - Orbit

View from above orbital plane
View from above orbital plane
View from above satellite
View from above satellite

Ground track
Ground track

The orbit data is extracted from the following two-line orbital elements,

1 27374U 02005C   17017.38103484  .00000169  00000-0  53334-4 0  9995
2 27374  86.3980 318.7664 0001996 106.0351  10.4008 14.34213779794335
Epoch (UTC): 17 January 2017 09:08:41
Eccentricity: 0.0001996
inclination: 86.3980°
perigee height: 776 km
apogee height: 779 km
right ascension of ascending node: 318.7664°
argument of perigee: 106.0351°
revolutions per day: 14.34213779
mean anomaly at epoch: 10.4008°
orbit number at epoch: 79433

The dashed part of the orbit path shows where the satellite is in the earth's shadow,  

DLR